Location: ????????
(60.5616°N, 46.8254°E)
Time: 21:09:59
(UTC+00:00)

Daily predictions for brighter satellites

Satellite Brightness Start Highest point End
(mag) Time Altitude Azimuth Time Altitude Azimuth Time Altitude Azimuth
Meteor 1-27 Rocket 4.2 14:23:10 10° N 14:28:17 37° ENE 14:33:24 10° SE
Cosmos 2082 Rocket 3.0 14:24:32 10° NW 14:30:05 59° WSW 14:35:38 10° SSE
SMAP 4.2 14:25:57 10° S 14:30:30 51° W 14:35:04 10° NNW
Cosmos 1515 Rocket 3.9 14:26:07 10° NNW 14:30:32 72° W 14:34:52 10° S
Cosmos 44 Rocket 3.7 14:27:10 10° WNW 14:31:46 49° N 14:36:23 10° E
Cosmos 304 Rocket 4.0 14:27:18 10° S 14:31:58 52° ESE 14:36:41 10° NE
Cosmos 2263 Rocket 3.2 14:27:20 10° W 14:32:39 41° NNW 14:38:02 10° NE
Cosmos 1844 Rocket 2.9 14:27:23 10° SW 14:33:00 80° NW 14:38:42 10° NE
Cosmos 1825 2.1 14:29:45 10° S 14:33:32 82° ESE 14:37:20 10° NNE
CZ-4 R/B 1.5 14:30:05 10° SSE 14:34:16 67° ENE 14:38:26 10° NNW
YAOGAN 6 2.7 14:31:10 10° SSE 14:34:40 81° WSW 14:38:12 10° NNW
Cosmos 1707 Rocket 4.0 14:30:31 10° N 14:34:44 40° ENE 14:38:56 10° SE
CZ-2D R/B 3.6 14:31:20 10° SE 14:35:04 46° ENE 14:38:50 10° N
Cosmos 1812 3.6 14:32:36 10° N 14:36:01 28° ENE 14:39:24 10° ESE
Sich 1 4.3 14:35:14 10° SE 14:38:22 20° E 14:41:30 10° NE
Cosmos 371 Rocket 3.4 14:36:04 10° SW 14:40:57 85° WNW 14:45:51 10° NNE
Cosmos 1500 Rocket 3.9 14:37:20 10° SSE 14:41:36 46° E 14:45:55 10° NNE
Cosmos 1110 Rocket 4.0 14:36:23 10° SSW 14:41:40 77° ESE 14:47:01 10° NE
Cosmos 1939 Rocket 3.1 14:37:53 10° SE 14:41:56 54° ENE 14:46:01 10° N
FengYun 1-2 T 4.5 14:36:50 10° SSE 14:42:30 81° WSW 14:48:10 10° NNW
FREGAT/IRIS 4.2 14:40:56 10° E 14:42:32 14° ENE 14:44:10 10° NNE
CZ-4B R/B 3.2 14:41:04 10° N 14:43:59 32° WNW 14:46:57 10° SW
Cosmos 1354 Rocket 4.2 14:39:41 10° NW 14:45:02 79° WSW 14:50:20 10° SSE
Cosmos 1605 Rocket 4.1 14:38:39 10° SSW 14:45:05 89° WNW 14:51:29 10° NNE
Lacrosse 5 rocket 2.9 14:41:35 10° SSW 14:45:12 25° SE 14:48:55 10° E
PSLV R/B 4.0 14:41:28 10° NNE 14:45:41 85° ESE 14:49:53 10° SSW
Cosmos 1833 Rocket 4.5 14:40:45 10° NW 14:45:54 37° WSW 14:51:01 10° S
COSMOS 2487 4.1 14:44:17 10° N 14:46:46 18° NE 14:49:02 11° ENE
Iridium 51 4.4 14:43:20 10° N 14:46:48 68° W 14:50:21 10° S
USA 186 3.2 14:47:45 11° ENE 14:48:14 12° NE 14:49:16 10° NNE
NOSS 3-2 (C) 3.8 14:43:14 10° WSW 14:49:35 77° NNW 14:56:59 10° ENE
Cosmos 1844 3.9 14:44:07 10° SW 14:49:44 78° NW 14:55:21 10° NE
Cosmos 332 Rocket 3.8 14:45:39 10° SSW 14:50:28 87° WNW 14:55:20 10° NNE
Meteor 2-3 Rocket 3.8 14:45:21 10° S 14:50:51 61° E 14:56:27 10° NNE
CZ-2C R/B 4.0 14:46:07 10° ESE 14:51:16 34° NE 14:56:20 10° N
Cosmos 2016 Rocket 4.4 14:46:26 10° SSE 14:52:02 40° E 14:57:41 10° NNE
NOSS 3-2 (A) 3.9 14:45:43 10° W 14:52:08 72° N 14:59:24 11° ENE
Cosmos 1743 Rocket 3.6 14:49:22 10° S 14:53:40 60° E 14:57:59 10° NNE
H-2A R/B 2.7 14:48:52 10° ESE 14:53:45 37° NE 14:58:44 10° N
Cosmos 1238 Rocket 4.4 14:49:16 10° SSE 14:55:15 45° E 15:01:31 10° NNE
ADEOS Rocket 4.0 14:49:51 10° NNE 14:56:48 37° E 15:03:55 10° SSE
Cosmos 1153 Rocket 4.5 14:52:58 10° S 14:59:16 82° E 15:05:31 10° NNE
USA 234 3.5 14:53:10 10° E 14:59:42 67° S 15:06:14 10° W
Cosmos 1331 Rocket 4.1 14:55:52 10° SSW 15:01:12 90° NNW 15:06:33 10° NNE
SeaSat 1 3.7 14:57:14 10° NE 15:01:44 35° NNW 15:06:12 10° W
Cosmos 1867 3.7 14:57:08 10° SW 15:02:32 64° SE 15:07:55 10° ENE
Cosmos 1689 Rocket 4.1 15:00:30 10° N 15:03:12 30° WNW 15:05:54 10° SW
Cosmos 2297 Rocket 3.4 15:00:01 10° NW 15:05:00 30° N 15:09:30 12° ENE
SL-27 R/B 2.4 15:05:01 10° NNW 15:08:25 60° NE 15:11:45 10° SE
Cosmos 1408 4.2 15:06:31 10° SW 15:09:59 37° WNW 15:13:28 10° N
CSL-04 Rocket 3.8 15:05:16 10° SSE 15:10:50 85° WSW 15:16:22 10° NNW
Ariane Rocket 3.1 15:06:00 10° SE 15:11:00 57° ENE 15:16:02 10° NNW
Okean 1-7 4.3 15:07:47 10° N 15:11:05 21° NE 15:13:09 15° E
SJ 16-02 2.6 15:07:55 10° NNW 15:11:40 26° NE 15:14:14 16° E
Cosmos 2151 4.5 15:08:00 10° SW 15:12:04 39° WNW 15:16:10 10° N
HJ-1C 3.5 15:09:28 10° SE 15:12:42 52° ENE 15:15:57 10° N
Cosmos 2278 Rocket 2.2 15:08:18 10° SSW 15:13:55 69° ESE 15:19:33 10° NE
SKYMED 2 3.5 15:10:22 10° NNE 15:14:43 65° ESE 15:19:03 10° S
Meteor 1-10 Rocket 4.2 15:10:09 10° NNW 15:15:54 89° ENE 15:21:32 10° SSE
YAOGAN 1 2.9 15:13:32 10° S 15:17:52 70° WSW 15:22:14 10° NNW
ARGOS 3.5 15:12:48 10° SE 15:17:58 45° ENE 15:23:07 10° NNW
NOAA 11 4.5 15:14:01 10° S 15:19:28 74° WSW 15:24:56 10° NNW
Cosmos 2173 Rocket 4.0 15:14:09 10° S 15:20:30 74° E 15:26:53 10° NNE
CSL-04 Debris 4.5 15:15:27 10° SSE 15:20:55 74° WSW 15:26:27 10° NNW
Cosmos 921 Rocket 4.5 15:18:14 10° SE 15:21:17 18° E 15:21:52 18° E
Cosmos 2227 Rocket 3.3 15:17:37 10° NW 15:22:37 31° NNE 15:26:31 15° ENE
SJ-11-01 4.3 15:18:37 10° SE 15:23:14 61° ENE 15:27:51 10° NNW
MONITOR-E 4.5 15:23:04 21° ESE 15:24:21 33° ENE 15:26:52 10° N
Cosmos 724 4.3 15:18:33 10° WNW 15:24:25 88° SSW 15:30:10 10° SE
Cosmos 1302 Rocket 3.9 15:20:49 10° SSW 15:26:02 84° ESE 15:31:17 10° NE
Cosmos 1782 4.1 15:23:23 10° NNW 15:27:15 45° W 15:31:05 10° SSW
Cosmos 1937 Rocket 4.3 15:22:32 10° NNW 15:27:23 34° NE 15:30:29 19° E
Cosmos 1633 Rocket 3.7 15:25:20 10° SSE 15:29:13 32° E 15:33:06 10° NNE
Cosmos 1666 Rocket 4.0 15:26:55 10° SSE 15:31:06 39° E 15:35:17 10° NNE
Cosmos 44 3.1 15:27:05 10° WNW 15:31:27 78° SW 15:35:16 14° SE
NOSS 5 (C) 4.3 15:28:29 10° SW 15:31:51 61° SSE 15:33:18 27° ENE
CENTAUR R/B 3.0 15:25:03 10° W 15:31:53 74° N 15:38:21 17° ENE
Lacrosse 4 Rocket 2.4 15:30:11 10° S 15:33:45 27° ESE 15:35:09 22° E
SPOT 3 Rocket 3.9 15:28:51 10° SE 15:33:46 45° ENE 15:38:44 10° NNW
Cosmos 2100 Rocket 4.1 15:28:48 10° SSW 15:35:11 90° W 15:41:33 10° NNE
CRYOSAT 2 4.3 15:31:58 10° SSE 15:36:48 63° ENE 15:41:41 10° N
SJ-6B 3.0 15:34:41 16° SE 15:37:27 43° ENE 15:41:03 10° N
ATLAS 3B R/B 2.8 15:31:09 10° W 15:37:49 73° NNW 15:43:09 17° ENE
Cosmos 2219 4.1 15:32:45 10° NW 15:38:01 35° NNE 15:41:21 20° ENE
Cosmos 2242 Rocket 3.9 15:34:45 10° N 15:39:08 47° ENE 15:43:19 11° SE
Resurs 1-3 4.3 15:37:44 21° ESE 15:39:54 34° ENE 15:43:53 10° N
Resurs 01 Rocket 2.5 15:41:09 24° E 15:42:43 30° NE 15:46:35 10° N
Cosmos 1862 3.4 15:39:54 10° S 15:43:47 53° E 15:47:42 10° NNE
Cosmos 1633 2.4 15:43:00 10° S 15:46:36 84° ESE 15:50:15 10° NNE
USA 238 DEB 3.9 15:40:35 10° W 15:47:32 71° N 15:52:28 22° E
USA 238 3.9 15:40:41 10° W 15:47:37 71° N 15:52:33 22° E
Cosmos 2061 Rocket 4.0 15:41:12 10° S 15:47:37 80° E 15:54:01 10° NNE
MOS 1 4.2 15:42:41 10° SSE 15:48:22 79° ENE 15:54:03 10° NNW
Cosmos 1943 Rocket 3.0 15:44:26 10° SSE 15:48:56 26° ESE 15:50:10 24° E
Cosmos 1459 Rocket 4.1 15:44:23 10° SSW 15:50:27 80° WNW 15:56:35 10° NNE
NOSS 7 (D) 3.7 15:49:43 10° WNW 15:52:29 80° NNE 15:53:03 52° E
Cosmos 405 3.7 15:49:17 10° N 15:52:30 32° ENE 15:52:36 31° ENE
Genesis I 3.7 15:53:45 10° WNW 15:57:36 49° N 15:59:01 32° ENE
Cosmos 2297 3.8 15:52:08 10° SSW 15:57:37 54° ESE 16:02:46 12° NE
Cosmos 1725 Rocket 3.9 15:53:32 10° S 15:59:42 78° E 16:05:56 10° NNE
Cosmos 2285 Rocket 4.0 15:53:19 10° NNW 15:59:42 88° WSW 16:06:06 10° SSE
USA 116 3.4 15:56:26 10° NNE 15:59:56 90° S 16:03:49 10° SSW
Timation 2 Rocket 4.2 15:54:19 10° NW 16:01:06 66° NE 16:05:24 24° ESE
Tsikada Rocket 4.5 15:56:18 10° NNW 16:02:35 66° W 16:08:53 10° S
COSMO-SKYMED 1 3.2 15:58:29 10° NNE 16:02:47 58° WNW 16:07:03 10° SW
Cosmos 1833 4.2 15:58:18 10° NW 16:04:08 88° SW 16:08:34 18° SE
NOSS 3-1 (C) 4.2 16:00:14 10° S 16:05:05 28° ESE 16:05:56 27° ESE
Cosmos 1898 Rocket 3.6 16:01:05 10° NNW 16:06:14 57° NE 16:08:33 31° ESE
Cosmos 1862 Rocket 3.7 16:05:03 10° NNW 16:09:24 74° WSW 16:13:42 10° S
CZ-4 R/B 4.0 16:06:14 10° SW 16:09:41 24° W 16:13:07 10° NW
Cosmos 1802 Rocket 4.3 16:03:23 10° SSW 16:09:41 74° WNW 16:16:07 10° NNE
Cosmos 1470 Rocket 3.8 16:06:44 10° SSE 16:10:51 43° E 16:15:03 10° NNE
Nadezhda 4 Rocket 4.2 16:05:04 10° N 16:11:07 49° ENE 16:14:26 26° SE
ARGOS Delta rocket 3.6 16:08:44 25° SE 16:11:13 62° ENE 16:15:37 10° N
Cosmos 1805 Rocket 3.9 16:07:33 10° SSW 16:11:56 67° WNW 16:16:18 10° N
Meteor 1-27 Rocket 4.2 16:06:32 10° NNW 16:12:00 62° W 16:17:27 10° S
Cosmos 1812 3.7 16:08:16 10° NNW 16:12:01 49° W 16:15:46 10° S
FREGAT/IRIS 2.7 16:11:57 37° S 16:12:49 64° WSW 16:15:34 10° NNW
Cosmos 44 Rocket 3.2 16:09:01 10° WNW 16:13:46 76° NNE 16:15:31 39° ESE
Cosmos 2369 Rocket 2.9 16:10:03 10° S 16:14:29 31° ESE 16:14:29 31° ESE
Sich 1 3.1 16:11:17 10° SSW 16:15:35 78° WNW 16:19:53 10° NNE
Cosmos 1844 Rocket 3.9 16:12:28 10° W 16:17:39 36° NNW 16:22:22 12° NE
Cosmos 2263 Rocket 3.6 16:13:03 10° WNW 16:17:57 29° N 16:21:19 17° NE
Okean 1 3.5 16:14:16 10° N 16:18:14 50° ENE 16:18:33 48° E
GENESIS II 4.5 16:14:11 10° WSW 16:18:17 70° NNW 16:19:48 37° NE
USA 186 2.2 16:19:13 40° NW 16:19:13 40° NW 16:21:02 10° NNW
Cosmos 1992 Rocket 4.0 16:15:14 10° SSW 16:20:30 89° WNW 16:25:49 10° NNE
COSMOS 2487 2.2 16:18:58 10° NNW 16:22:28 73° ENE 16:22:36 71° E
Lacrosse 5 rocket 1.9 16:19:25 10° WSW 16:23:46 49° SSE 16:24:36 43° SE
Cosmos 1703 Rocket 3.4 16:20:48 10° NNW 16:25:15 72° ENE 16:26:57 37° SSE
CZ-2C R/B 3.4 16:24:57 10° SSE 16:30:47 77° WSW 16:36:33 10° NNW
MetOp-B 4.4 16:29:39 41° E 16:30:55 49° ENE 16:36:04 10° NNW
Cosmos 292 Rocket 3.8 16:27:22 10° SW 16:32:12 83° NW 16:36:34 13° NNE
Cosmos 1125 Rocket 4.5 16:27:41 10° NNW 16:32:25 31° NNE 16:33:24 29° NE
H-2A R/B 2.5 16:27:38 10° S 16:32:58 65° WSW 16:38:26 10° NNW
Meteor 1-20 Rocket 4.4 16:34:17 43° ESE 16:34:38 43° E 16:39:51 10° NNE
ERS-1 Rocket 3.9 16:35:41 31° NE 16:35:41 31° NE 16:40:04 10° N
Cosmos 858 Rocket 4.5 16:31:03 10° NNW 16:36:20 67° NE 16:37:42 47° ESE
SeaSat 1 4.2 16:35:30 15° NE 16:38:21 24° N 16:42:15 10° WNW
SL-08 RB Rocket 3.7 16:36:33 24° S 16:39:14 77° WSW 16:43:46 10° NNW
NOSS 3-2 (C) 3.8 16:34:23 10° WNW 16:41:06 74° N 16:44:26 36° E
CZ-2C R/B 4.1 16:36:45 10° NNE 16:39:10 22° NE 16:39:10 22° NE
Okean 3 4.3 16:37:50 10° N 16:41:01 36° NE 16:41:01 36° NE
Cosmos 2221 Rocket 4.0 16:37:34 10° N 16:41:38 45° NE 16:41:38 45° NE
ADEOS Rocket 3.6 16:35:23 10° NNE 16:42:56 81° WNW 16:50:45 10° SSW
Meteor 1-19 Rocket 4.2 16:37:16 10° NNW 16:43:15 76° ENE 16:45:47 36° SSE
USA 234 3.7 16:40:05 28° SE 16:43:19 51° SSW 16:49:42 10° W
NOSS 3-2 (A) 3.8 16:36:48 10° WNW 16:43:35 79° NNE 16:46:48 39° E
Terra 3.3 16:46:47 24° NE 16:46:47 24° NE 16:49:54 10° N
Cosmos 1867 3.9 16:40:50 10° W 16:46:17 64° NNW 16:48:35 34° NE
Cosmos 1092 Rocket 4.1 16:42:59 10° N 16:49:13 56° ENE 16:50:44 46° ESE
Okean 1-7 2.9 16:44:57 10° NNW 16:49:15 85° WSW 16:50:02 59° S
Cosmos 2297 Rocket 2.5 16:44:43 10° NW 16:50:16 49° NE 16:51:18 44° ENE
SJ 16-02 1.2 16:46:24 10° NNW 16:50:52 87° ENE 16:51:14 75° SE
USA 229 DEB 3.8 16:46:03 10° SSW 16:52:21 48° SE 16:53:22 45° ESE
USA 229 3.8 16:46:10 10° SSW 16:52:28 48° SE 16:53:25 45° ESE
Cosmos 2233 Rocket 4.1 16:48:56 10° SSW 16:55:05 75° WNW 17:01:20 10° NNE
MetOp-A 4.2 16:52:51 26° S 16:56:00 75° WSW 17:01:24 10° NNW
ARGOS 4.0 16:52:58 10° S 16:58:14 51° W 17:03:33 10° NNW
Cosmos 2278 Rocket 3.1 16:52:53 10° WSW 16:58:21 46° NNW 17:02:43 16° NE
Cosmos 921 Rocket 2.9 16:54:26 10° SSW 16:58:49 81° SSE 16:58:49 81° SSE
Meteor 1-25 Rocket 4.1 17:01:34 42° SSE 17:03:25 65° E 17:09:01 10° NNE
Cosmos 1072 Rocket 4.4 16:58:05 10° S 17:04:26 72° E 17:10:45 10° NNE
Meteor 1-13 Rocket 4.3 16:59:04 10° NNW 17:04:59 60° ENE 17:05:32 57° E
Cosmos 2082 4.2 17:01:02 10° NW 17:06:31 44° NNE 17:07:13 42° NE
Cosmos 1633 Rocket 4.0 17:02:41 10° SW 17:06:54 48° WNW 17:11:08 10° N
Spot 2 Rocket 3.3 17:07:28 71° E 17:07:39 72° ENE 17:12:44 10° NNW
Cosmos 2227 Rocket 2.4 17:02:15 10° NW 17:07:49 54° NE 17:08:21 52° ENE
Meteor 2-4 Rocket 3.7 17:02:32 10° NNW 17:08:22 77° ENE 17:09:26 60° SE
Cosmos 1933 Rocket 4.1 17:10:33 49° N 17:10:33 49° N 17:13:50 10° NNE
Cosmos 1937 Rocket 3.4 17:04:36 10° NW 17:09:56 84° WSW 17:10:41 66° SSE
Cosmos 990 Rocket 4.1 17:05:23 10° NW 17:10:31 68° WSW 17:11:35 53° S
Cosmos 2195 Rocket 4.4 17:04:58 10° NNW 17:11:04 63° ENE 17:11:42 60° E
Lacrosse 4 Rocket 1.7 17:07:47 10° SW 17:11:30 66° WSW 17:11:30 66° WSW
SPOT 3 Rocket 4.4 17:09:21 17° S 17:13:13 48° W 17:18:18 10° NNW
Resurs 1-3 4.3 17:15:07 43° SW 17:16:08 52° W 17:20:28 10° NNW
Resurs 01 Rocket 1.9 17:18:43 62° SW 17:18:59 64° WSW 17:23:26 10° NNW
Cosmos 2298 Rocket 4.0 17:16:57 10° NNW 17:22:07 68° NE 17:22:07 68° NE
Cosmos 2219 3.1 17:17:14 10° NW 17:22:59 76° NE 17:23:17 74° ENE
CENTAUR R/B 3.0 17:15:58 10° WNW 17:23:15 79° NNE 17:25:32 51° E
Cosmos 1513 Rocket 4.3 17:19:48 24° S 17:23:40 84° E 17:29:53 10° NNE
SPOT 5 3.6 17:27:38 47° NNE 17:27:38 47° NNE 17:31:49 10° NNW
Cosmos 1627 Rocket 4.3 17:21:31 10° NNW 17:27:50 73° ENE 17:28:13 71° ESE
ATLAS 3B R/B 2.7 17:22:23 10° WNW 17:29:04 71° NNE 17:30:23 57° ENE
Cosmos 1891 Rocket 4.4 17:24:51 11° SSW 17:30:56 89° W 17:37:19 10° NNE
Cosmos 1943 Rocket 2.0 17:26:31 10° SW 17:31:48 80° SSW 17:31:48 80° SSW
Meteor 2-11 Rocket 4.3 17:31:00 39° SSW 17:33:29 89° ESE 17:39:37 10° NNE
USA 238 DEB 3.7 17:31:47 10° WNW 17:38:51 82° SSW 17:39:55 67° SE
USA 238 3.7 17:31:53 10° WNW 17:38:56 82° SSW 17:40:00 67° SE
Cosmos 2297 4.3 17:36:22 10° WSW 17:41:55 54° NW 17:44:44 28° NNE
Cosmos 2150 Rocket 4.2 17:37:37 10° NNW 17:42:22 69° NNW 17:42:22 69° NNW
Landsat 7 4.5 17:45:03 51° NNW 17:45:03 51° NNW 17:48:38 10° NNW
Cosmos 1655 Rocket 4.4 17:41:53 10° N 17:47:28 52° NE 17:47:28 52° NE
Cosmos 1898 Rocket 4.4 17:43:23 10° NW 17:48:14 40° WSW 17:48:52 39° SW
SPOT 1/Viking Rocket 3.9 17:54:17 60° NNW 17:54:17 60° NNW 17:58:31 10° NNW
NOSS 3-1 (C) 3.8 17:49:06 10° SW 17:53:25 52° SW 17:53:25 52° SW
Cosmos 44 Rocket 4.5 17:50:42 10° WNW 17:54:14 36° WSW 17:54:14 36° WSW
Cosmos 1464 Rocket 4.2 17:48:46 10° SSW 17:55:08 69° WNW 18:01:33 10° NNE
Cosmos 2369 Rocket 3.0 17:52:50 10° SW 17:56:25 41° SW 17:56:25 41° SW
Lacrosse 5 rocket 3.4 17:58:12 10° W 18:00:15 25° WSW 18:00:15 25° WSW
Cosmos 1844 Rocket 4.1 17:58:06 10° WNW 18:03:00 29° N 18:04:01 27° NNE
Cosmos 2263 Rocket 3.2 17:58:02 10° NW 18:03:00 37° NNE 18:03:00 37° NNE
Cosmos 2026 Rocket 4.0 17:58:18 10° NNW 18:04:34 78° W 18:04:34 78° W
Cosmos 2034 Rocket 4.1 18:11:08 68° W 18:11:33 70° WNW 18:17:44 10° NNE
ERS-1 Rocket 3.9 18:15:40 46° NNW 18:15:40 46° NNW 18:19:14 10° NNW
SeaSat 1 4.1 18:15:17 27° N 18:15:17 27° N 18:18:59 10° NW
Cosmos 1125 Rocket 4.3 18:09:51 10° NNW 18:13:41 48° NNW 18:13:41 48° NNW
CZ-2C R/B 3.6 18:16:55 10° NNE 18:20:42 43° N 18:20:42 43° N
Terra 3.4 18:25:40 31° NNW 18:25:40 31° NNW 18:28:10 10° NNW
SJ 16-02 3.7 18:25:40 10° NW 18:28:15 20° W 18:28:15 20° W
NOSS 3-2 (C) 3.9 18:25:20 10° WNW 18:31:53 71° WSW 18:31:53 71° WSW
Cosmos 2297 Rocket 3.0 18:28:57 10° NW 18:33:07 47° WNW 18:33:07 47° WNW
NOSS 3-2 (A) 4.1 18:27:37 10° WNW 18:34:12 60° SW 18:34:12 60° SW
USA 229 DEB 4.3 18:36:15 10° WSW 18:40:52 48° WSW 18:40:52 48° WSW
USA 229 4.3 18:36:21 10° WSW 18:40:55 47° WSW 18:40:55 47° WSW
Cosmos 2278 Rocket 3.8 18:38:46 10° WNW 18:43:43 29° N 18:44:35 28° N
Lacrosse 4 Rocket 4.3 18:47:16 10° W 18:47:52 13° W 18:47:52 13° W
Cosmos 2227 Rocket 3.4 18:46:29 10° NW 18:50:10 38° WNW 18:50:10 38° WNW
Resurs 01 Rocket 4.4 18:56:16 14° W 18:56:23 14° W 18:58:39 10° NW
CENTAUR R/B 3.4 19:06:38 10° WNW 19:12:43 56° W 19:12:43 56° W
Cosmos 1943 Rocket 4.1 19:11:13 10° W 19:13:26 22° W 19:13:26 22° W
ATLAS 3B R/B 3.5 19:13:16 10° WNW 19:17:39 43° WNW 19:17:39 43° WNW
Cosmos 2263 Rocket 4.0 19:42:14 10° NW 19:44:42 27° NW 19:44:42 27° NW
SL-16 R/B 4.2 20:07:18 27° NNE 20:07:18 27° NNE 20:11:22 10° NNW
Cosmos 2278 Rocket 4.3 20:24:05 10° NW 20:26:26 22° NNW 20:26:26 22° NNW
ATLAS 2AS CENTAUR R/B 4.4 21:21:04 28° ENE 21:21:04 28° ENE 21:24:23 10° ENE
SL-16 R/B 4.1 21:52:22 30° NNW 21:52:22 30° NNW 21:55:21 10° NNW
Resurs 1-4 Rocket 4.4 21:56:49 10° NNE 21:58:38 20° NE 21:58:38 20° NE
Cosmos 2322 Rocket 4.1 22:21:24 25° NE 22:21:24 25° NE 22:23:42 10° NE
Cosmos 2344 4.0 22:29:21 62° ENE 22:29:21 62° ENE 22:36:59 10° ENE
Cosmos 2219 Rocket 4.2 22:37:36 21° ENE 22:37:36 21° ENE 22:40:05 10° NE
Cosmos 1943 Rocket 4.4 22:50:38 16° E 22:50:38 16° E 22:51:50 10° E
Cosmos 2360 Rocket 3.8 22:49:53 30° NE 22:49:53 30° NE 22:52:42 10° NE
Cosmos 1697 Rocket 4.3 22:50:25 30° NNE 22:50:25 30° NNE 22:53:48 10° NE
Cosmos 1980 Rocket 3.7 22:56:17 31° NNE 22:56:17 31° NNE 22:59:34 10° NE
COSMOS 2428 4.4 22:58:37 27° ENE 22:58:37 27° ENE 23:01:51 10° NE
CZ-2D R/B 3.8 22:55:15 10° NNE 22:57:46 29° NNE 22:57:46 29° NNE
ATLAS 2AS CENTAUR R/B 3.1 23:08:28 72° NNE 23:08:28 72° NNE 23:15:32 10° ENE
Cosmos 2369 Rocket 3.4 23:15:17 38° ENE 23:15:17 38° ENE 23:19:38 10° E
SL-16 R/B 3.4 23:19:48 39° NNE 23:19:48 39° NNE 23:23:27 10° NE
CZ-4C R/B 4.1 23:19:06 22° ESE 23:19:06 22° ESE 23:22:54 10° ENE
ADEOS II 3.3 23:22:13 10° NNE 23:25:40 38° NE 23:25:40 38° NE
Cosmos 1821 Rocket 4.5 23:24:24 10° N 23:29:43 55° NE 23:29:43 55° NE
IDEFIX/ARIANE 42P 4.3 23:26:49 10° NNE 23:31:11 26° E 23:31:41 25° E
Resurs 1-4 Rocket 3.4 23:36:36 10° NNE 23:39:43 35° N 23:39:43 35° N
Cosmos 2333 Rocket 3.0 23:43:48 49° ENE 23:43:48 49° ENE 23:48:12 10° NE
Cosmos 2322 4.3 23:49:26 53° NE 23:49:26 53° NE 23:53:45 10° NE
COSMOS 2455 3.6 23:48:19 47° N 23:48:19 47° N 23:54:03 10° ENE
